SCP
0 0 0 0 0 0 0 0 0 0 0 0 0 0 0 0 0 0 0 0 0 0 0 0 0 0 0 0 0 0 0 0 0 0 0 0 0 0 0 0 0 0 0
0 0 0 0 0 0 0 0 0 0 0 0 0 0 0 0 0 0 0 0 0 0 0 0 0 0 0 0 0 0 0 0 0 0 0 0 0 0 0 0 0 0 0
0 0 0 0 0 0 0 0 0 0 0 0 0 0 0 0 0 0 0 0 0 0 0 0 0 0 0 0 0 0 0 0 0 0 0 0 0 0 0 0 0 0 0
0 0 0 0 0 0 0 0 0 0 0 0 0 0 0 0 0 0 0 0 0 0 0 0 0 0 0 0 0 0 0 0 0 0 0 0 0 0 0 0 0 0 0
0 0 0 0 0 0 0 0 0 0 0 0 0 0 0 0 0 0 0 0 0 0 0 0 0 0 0 0 0 0 0 0 0 0 0 0 0 0 0 0 0 0 0
0 0 0 0 0 0 0 0 0 0 0 0 0 0 0 0 0 0 0 0 0 0 0 0 0 0 0 0 0 0 0 0 0 0 0 0 0 0 0 0 0 0 0
0 0 0 0 0 0 0 0 0 0 0 0 0 0 0 0 0 0 0 0 0 0 0 0 0 0 0 0 0 0 0 0 0 0 0 0 0 0 0 0 0 0 0
0 0 0 0 0 0 0 0 0 0 0 0 0 0 0 0 0 0 0 0 0 0 0 0 0 0 0 0 0 0 0 0 0 0 0 0 0 0 0 0 0 0 0
0 0 0 0 0 0 0 0 0 0 0 0 0 0 0 0 0 0 0 0 0 0 0 0 0 0 0 0 0 0 0 0 0 0 0 0 0 0 0 0 0 0 0
0 0 0 0 0 0 0 0 0 0 0 0 0 0 0 0 0 0 0 0 0 0 0 0 0 0 0 0 0 0 0 0 0 0 0 0 0 0 0 0 0 0 0
0 0 0 0 0 0 0 0 0 0 0 0 0 0 0 0 0 0 0 0 0 0 0 0 0 0 0 0 0 0 0 0 0 0 0 0 0 0 0 0 0 0 0
0 0 0 0 0 0 0 0 0 0 0 0 0 0 0 0 0 0 0 0 0 0 0 0 0 0 0 0 0 0 0 0 0 0 0 0 0 0 0 0 0 0 0
0 0 0 0 0 0 0 0 0 0 0 0 0 0 0 0 0 0 0 0 0 0 0 0 0 0 0 0 0 0 0 0 0 0 0 0 0 0 0 0 0 0 0
0 0 0 0 0 0 0 0 0 0 0 0 0 0 0 0 0 0 0 0 0 0 0 0 0 0 0 0 0 0 0 0 0 0 0 0 0 0 0 0 0 0 0
0 0 0 0 0 0 0 0 0 0 0 0 0 0 0 0 0 0 0 0 0 0 0 0 0 0 0 0 0 0 0 0 0 0 0 0 0 0 0 0 0 0 0
0 0 0 0 0 0 0 0 0 0 0 0 0 0 0 0 0 0 0 0 0 0 0 0 0 0 0 0 0 0 0 0 0 0 0 0 0 0 0 0 0 0 0
0 0 0 0 0 0 0 0 0 0 0 0 0 0 0 0 0 0 0 0 0 0 0 0 0 0 0 0 0 0 0 0 0 0 0 0 0 0 0 0 0 0 0
0 0 0 0 0 0 0 0 0 0 0 0 0 0 0 0 0 0 0 0 0 0 0 0 0 0 0 0 0 0 0 0 0 0 0 0 0 0 0 0 0 0 0
0 0 0 0 0 0 0 0 0 0 0 0 0 0 0 0 0 0 0 0 0 0 0 0 0 0 0 0 0 0 0 0 0 0 0 0 0 0 0 0 0 0 0
0 0 0 0 0 0 0 0 0 0 0 0 0 0 0 0 0 0 0 0 0 0 0 0 0 0 0 0 0 0 0 0 0 0 0 0 0 0 0 0 0 0 0
0 0 0 0 0 0 0 0 0 0 0 0 0 0 0 0 0 0 0 0 0 0 0 0 0 0 0 0 0 0 0 0 0 0 0 0 0 0 0 0 0 0 0
0 0 0 0 0 0 0 0 0 0 0 0 0 0 0 0 0 0 0 0 0 0 0 0 0 0 0 0 0 0 0 0 0 0 0 0 0 0 0 0 0 0 0
0 0 0 0 0 0 0 0 0 0 0 0 0 0 0 0 0 0 0 0 0 0 0 0 0 0 0 0 0 0 0 0 0 0 0 0 0 0 0 0 0 0 0
0 0 0 0 0 0 0 0 0 0 0 0 0 0 0 0 0 0 0 0 0 0 0 0 0 0 0 0 0 0 0 0 0 0 0 0 0 0 0 0 0 0 0
0 0 0 0 0 0 0 0 0 0 0 0 0 0 0 0 0 0 0 0 0 0 0 0 0 0 0 0 0 0 0 0 0 0 0 0 0 0 0 0 0 0 0
0 0 0 0 0 0 0 0 0 0 0 0 0 0 0 0 0 0 0 0 0 0 0 0 0 0 0 0 0 0 0 0 0 0 0 0 0 0 0 0 0 0 0
Wind_Speed_500mb
45 44 42 41 39 38 37 33 28 29 30 31 33 36 39 39 38 40 43 43 47 44 41 45 44 44 46 47 53 57 61 62 62 65 65 65 52 40 39 28 27 26 29
45 44 45 43 42 37 37 38 37 37 35 33 34 38 39 39 37 38 40 41 38 36 30 36 39 43 47 49 51 51 53 54 53 50 46 26 51 23 22 42 44 44 40
42 38 37 37 36 36 32 30 28 25 25 31 36 39 38 37 33 32 34 34 33 33 35 36 39 40 42 42 43 43 42 43 44 34 24 20 16 51 54 51 48 41 47
38 36 32 31 28 25 22 21 22 26 29 29 26 25 24 22 20 20 21 24 27 29 32 33 33 33 33 34 35 35 36 36 39 40 33 28 39 41 39 46 63 54 51
30 26 19 15 13 14 13 11 12 11 6 6 6 7 9 9 11 14 16 21 24 25 27 28 29 31 32 33 36 36 35 36 39 39 44 47 44 40 41 51 51 65 64
27 20 19 12 10 15 19 14 10 12 11 9 9 8 7 9 10 12 14 17 20 24 27 29 30 31 33 35 37 37 39 40 42 44 45 47 48 51 46 59 66 68 77
34 27 25 29 32 26 23 18 14 12 11 9 9 10 11 12 13 15 17 19 21 24 28 31 34 37 40 42 43 44 46 46 48 50 51 50 51 52 56 61 75 70 83
47 40 33 27 27 24 20 14 11 10 9 9 11 12 13 15 17 19 21 23 25 28 31 33 36 39 43 44 45 45 47 48 48 49 50 54 53 53 54 56 57 74 80
26 35 41 32 23 19 14 10 8 7 8 9 10 13 15 16 17 19 19 21 23 25 30 35 40 43 46 48 50 53 54 53 53 54 56 56 55 55 54 55 53 50 51
55 46 40 31 23 16 10 8 6 4 6 9 12 14 15 17 16 15 18 23 28 33 38 42 48 52 56 60 60 60 59 62 61 62 64 64 64 63 60 60 57 51 53
53 45 35 26 20 12 9 5 1 4 8 11 14 15 15 14 17 22 28 34 41 47 54 60 64 66 68 66 65 64 64 65 66 63 65 65 63 64 61 58 57 57 52
48 37 28 23 18 12 8 4 3 7 11 14 15 14 16 20 25 32 40 47 54 59 64 64 64 63 64 66 67 68 67 67 69 69 70 72 72 73 71 69 67 61 55
42 29 22 24 19 12 7 5 7 9 12 12 12 15 20 27 36 44 50 55 55 53 53 55 56 56 55 55 54 56 58 58 59 60 63 65 67 69 70 70 70 67 63
35 29 25 26 20 15 12 10 8 9 9 11 16 22 30 38 46 50 50 50 51 51 49 49 49 50 51 54 56 57 59 60 60 60 61 62 63 66 67 67 66 64 65
41 37 32 29 26 21 15 11 8 8 11 17 24 31 38 43 44 46 47 47 47 48 50 50 47 49 51 54 58 61 64 66 67 66 65 65 65 65 65 66 69 67 66
36 37 35 33 28 21 15 10 8 12 20 28 34 38 40 41 42 43 44 44 43 43 45 46 48 49 51 55 58 64 69 70 71 73 70 68 68 67 65 62 61 57 56
35 42 41 36 27 18 15 12 12 21 29 34 35 36 37 40 42 42 42 43 44 46 47 49 50 51 55 59 62 66 68 69 71 73 76 77 75 72 69 67 66 66 59
32 41 41 32 23 20 16 15 21 26 30 34 35 36 38 37 37 39 41 44 46 48 49 51 54 55 57 63 68 72 73 73 71 70 70 72 73 71 70 74 76 72 67
31 34 30 24 21 16 16 21 25 29 31 30 33 34 34 35 38 40 43 45 46 48 50 54 57 61 63 65 67 70 71 73 73 72 71 72 72 70 64 67 75 77 80
27 25 24 22 17 16 20 24 27 27 27 31 32 34 35 36 38 42 44 48 50 51 53 55 58 60 61 62 64 66 68 73 75 75 79 76 67 69 68 68 72 81 89
24 23 18 13 16 19 23 26 26 27 31 31 33 34 36 38 40 44 48 50 52 54 56 55 53 54 56 57 60 64 65 66 73 79 85 84 74 73 77 71 74 80 78
20 16 16 17 20 24 25 25 27 32 33 34 35 39 41 44 45 47 48 50 51 52 53 54 53 51 51 55 59 61 59 57 67 79 84 84 81 82 80 73 67 71 74
21 21 22 23 24 23 25 27 33 34 35 37 41 44 45 46 46 45 45 47 50 52 53 53 52 51 50 52 55 61 61 60 64 76 73 81 86 87 87 81 71 69 67
27 27 29 29 25 26 28 33 35 36 38 41 44 45 47 46 46 45 45 45 47 48 49 49 51 54 55 57 61 64 66 70 76 83 86 83 83 82 78 77 71 64 54
31 32 33 30 28 29 33 35 35 38 41 43 46 48 48 45 43 42 42 43 45 46 46 46 50 55 59 57 55 57 61 64 70 79 88 91 88 86 82 72 60 53 42
34 36 34 32 33 34 35 38 38 41 42 44 47 46 44 42 41 40 38 41 41 40 42 45 50 54 57 63 68 65 57 63 72 82 83 83 78 76 75 70 65 51 44
Wind_Direction_500mb
203 207 209 211 213 218 221 227 233 242 246 253 261 269 277 279 280 281 284 286 288 284 288 290 291 294 294 297 296 297 297 299 302 307 305 306 312 314 306 306 305 298 295
210 216 215 218 219 223 224 230 237 243 248 255 264 268 270 273 278 281 284 289 291 289 284 286 289 287 288 288 290 295 298 301 305 312 318 320 318 322 309 307 299 302 302
194 190 195 200 205 210 211 213 220 232 248 258 261 266 272 278 281 284 288 290 289 288 288 291 294 297 298 299 300 302 305 307 307 318 314 321 304 308 313 314 307 310 305
160 155 160 172 180 192 207 225 242 257 265 268 274 280 283 285 286 290 297 297 296 298 299 300 302 304 307 308 308 309 309 309 308 309 311 293 289 304 306 293 298 308 304
151 148 152 161 178 195 207 211 222 229 275 318 321 322 315 310 311 311 308 305 306 309 310 311 314 313 311 310 309 308 305 303 301 302 302 300 297 300 293 304 295 293 292
142 142 145 145 144 137 135 142 105 89 83 59 40 27 6 354 343 336 328 326 325 322 320 320 318 316 315 314 312 309 307 304 300 299 298 298 300 298 303 299 297 298 299
138 133 131 136 133 136 115 109 97 83 71 49 28 14 0 350 344 339 329 321 319 319 318 317 318 319 318 317 315 313 311 309 308 307 305 303 300 298 297 295 296 298 299
129 126 127 132 134 124 113 103 86 64 50 29 7 352 341 332 331 329 325 325 325 324 323 325 325 325 325 324 324 323 320 318 314 310 307 305 303 299 297 296 298 302 300
190 165 154 145 134 126 118 114 89 56 24 0 345 331 326 323 326 325 325 330 335 335 335 333 329 326 322 318 317 315 314 313 311 309 307 304 303 300 298 293 291 290 294
154 152 149 150 145 129 124 105 74 27 339 329 322 324 330 336 339 339 336 335 333 330 327 324 323 320 317 315 314 312 310 308 308 306 304 304 303 300 298 295 291 285 281
154 151 153 157 154 140 129 122 101 302 307 311 321 330 336 336 333 331 332 330 328 325 323 321 319 318 316 315 313 311 310 308 307 307 305 304 302 299 297 294 290 286 280
152 156 164 172 174 171 168 191 288 306 313 318 323 328 328 327 328 326 324 323 320 317 316 315 315 314 312 310 309 309 309 308 307 306 305 304 302 300 300 298 295 290 284
161 166 182 190 193 203 217 258 277 296 305 307 309 316 316 317 318 318 316 315 315 316 315 314 313 314 315 314 314 314 313 312 310 309 308 307 305 302 300 298 295 294 290
183 196 200 200 207 212 226 242 266 284 289 296 309 312 313 314 315 317 318 318 319 320 321 324 325 324 323 322 321 318 317 316 314 312 309 308 307 305 304 302 299 296 292
202 209 209 204 204 210 222 237 264 272 295 306 308 310 313 317 319 319 321 324 327 330 331 332 331 328 326 324 323 321 321 320 319 316 313 311 309 306 305 305 303 301 296
213 215 208 202 201 212 225 245 258 294 306 309 312 315 318 319 323 326 329 332 334 334 332 329 330 331 330 330 328 326 325 324 322 320 319 316 312 309 307 306 302 300 301
214 210 203 200 205 218 230 232 275 300 306 310 314 319 326 331 331 331 331 331 332 333 334 334 334 335 334 333 330 327 327 326 325 324 324 322 319 318 318 314 308 305 300
204 197 197 198 208 214 221 263 292 304 312 316 322 327 327 326 325 327 330 333 335 335 337 337 337 337 335 333 331 329 328 327 326 327 326 323 324 325 322 319 314 312 310
180 182 188 199 204 218 263 291 303 309 313 318 318 318 320 325 329 331 332 333 335 335 337 336 336 336 335 332 328 327 327 326 328 327 327 328 324 325 324 316 315 318 315
176 187 195 199 220 262 288 302 310 311 311 312 316 321 322 322 325 327 331 333 332 333 334 334 332 330 330 332 332 332 331 332 333 330 328 328 324 323 322 316 315 309 311
185 189 203 240 272 288 303 308 304 305 310 309 309 309 314 318 324 327 328 326 328 329 326 326 327 328 331 334 336 336 336 336 329 330 330 329 325 322 316 311 303 298 307
202 223 255 275 290 298 295 294 298 303 301 304 307 313 315 319 322 320 319 321 322 322 323 324 327 332 337 338 338 337 338 336 332 330 329 329 326 324 320 313 303 299 298
240 256 267 279 285 286 294 295 298 298 301 305 306 309 313 312 311 312 314 316 318 321 324 326 330 335 339 340 338 338 340 334 329 327 325 327 328 327 323 321 312 305 301
257 269 279 285 284 285 289 294 297 298 302 302 304 305 304 304 308 311 312 315 318 320 323 327 331 334 337 337 338 338 338 332 328 323 326 328 327 326 324 320 316 315 306
264 273 276 270 273 281 286 291 295 297 297 299 300 300 300 302 303 305 309 316 319 322 327 329 329 330 332 335 332 332 332 325 322 322 325 327 328 330 332 330 325 321 325
267 271 267 265 271 276 285 288 289 288 291 295 296 297 298 298 299 303 310 315 317 320 323 326 327 327 327 327 328 330 325 324 326 325 326 327 329 331 333 336 335 332 335
Wind_Speed_850mb
45 44 42 41 39 38 37 33 28 29 30 31 33 36 39 39 38 40 43 43 47 44 41 45 44 44 46 47 53 57 61 62 62 65 65 65 52 40 39 28 27 26 29
45 44 45 43 42 37 37 38 37 37 35 33 34 38 39 39 37 38 40 41 38 36 30 36 39 43 47 49 51 51 53 54 53 50 46 26 51 23 22 42 44 44 40
42 38 37 37 36 36 32 30 28 25 25 31 36 39 38 37 33 32 34 34 33 33 35 36 39 40 42 42 43 43 42 43 44 34 24 20 16 51 54 51 48 41 47
38 36 32 31 28 25 22 21 22 26 29 29 26 25 24 22 20 20 21 24 27 29 32 33 33 33 33 34 35 35 36 36 39 40 33 28 39 41 39 46 63 54 51
30 26 19 15 13 14 13 11 12 11 6 6 6 7 9 9 11 14 16 21 24 25 27 28 29 31 32 33 36 36 35 36 39 39 44 47 44 40 41 51 51 65 64
27 20 19 12 10 15 19 14 10 12 11 9 9 8 7 9 10 12 14 17 20 24 27 29 30 31 33 35 37 37 39 40 42 44 45 47 48 51 46 59 66 68 77
34 27 25 29 32 26 23 18 14 12 11 9 9 10 11 12 13 15 17 19 21 24 28 31 34 37 40 42 43 44 46 46 48 50 51 50 51 52 56 61 75 70 83
47 40 33 27 27 24 20 14 11 10 9 9 11 12 13 15 17 19 21 23 25 28 31 33 36 39 43 44 45 45 47 48 48 49 50 54 53 53 54 56 57 74 80
26 35 41 32 23 19 14 10 8 7 8 9 10 13 15 16 17 19 19 21 23 25 30 35 40 43 46 48 50 53 54 53 53 54 56 56 55 55 54 55 53 50 51
55 46 40 31 23 16 10 8 6 4 6 9 12 14 15 17 16 15 18 23 28 33 38 42 48 52 56 60 60 60 59 62 61 62 64 64 64 63 60 60 57 51 53
53 45 35 26 20 12 9 5 1 4 8 11 14 15 15 14 17 22 28 34 41 47 54 60 64 66 68 66 65 64 64 65 66 63 65 65 63 64 61 58 57 57 52
48 37 28 23 18 12 8 4 3 7 11 14 15 14 16 20 25 32 40 47 54 59 64 64 64 63 64 66 67 68 67 67 69 69 70 72 72 73 71 69 67 61 55
42 29 22 24 19 12 7 5 7 9 12 12 12 15 20 27 36 44 50 55 55 53 53 55 56 56 55 55 54 56 58 58 59 60 63 65 67 69 70 70 70 67 63
35 29 25 26 20 15 12 10 8 9 9 11 16 22 30 38 46 50 50 50 51 51 49 49 49 50 51 54 56 57 59 60 60 60 61 62 63 66 67 67 66 64 65
41 37 32 29 26 21 15 11 8 8 11 17 24 31 38 43 44 46 47 47 47 48 50 50 47 49 51 54 58 61 64 66 67 66 65 65 65 65 65 66 69 67 66
36 37 35 33 28 21 15 10 8 12 20 28 34 38 40 41 42 43 44 44 43 43 45 46 48 49 51 55 58 64 69 70 71 73 70 68 68 67 65 62 61 57 56
35 42 41 36 27 18 15 12 12 21 29 34 35 36 37 40 42 42 42 43 44 46 47 49 50 51 55 59 62 66 68 69 71 73 76 77 75 72 69 67 66 66 59
32 41 41 32 23 20 16 15 21 26 30 34 35 36 38 37 37 39 41 44 46 48 49 51 54 55 57 63 68 72 73 73 71 70 70 72 73 71 70 74 76 72 67
31 34 30 24 21 16 16 21 25 29 31 30 33 34 34 35 38 40 43 45 46 48 50 54 57 61 63 65 67 70 71 73 73 72 71 72 72 70 64 67 75 77 80
27 25 24 22 17 16 20 24 27 27 27 31 32 34 35 36 38 42 44 48 50 51 53 55 58 60 61 62 64 66 68 73 75 75 79 76 67 69 68 68 72 81 89
24 23 18 13 16 19 23 26 26 27 31 31 33 34 36 38 40 44 48 50 52 54 56 55 53 54 56 57 60 64 65 66 73 79 85 84 74 73 77 71 74 80 78
20 16 16 17 20 24 25 25 27 32 33 34 35 39 41 44 45 47 48 50 51 52 53 54 53 51 51 55 59 61 59 57 67 79 84 84 81 82 80 73 67 71 74
21 21 22 23 24 23 25 27 33 34 35 37 41 44 45 46 46 45 45 47 50 52 53 53 52 51 50 52 55 61 61 60 64 76 73 81 86 87 87 81 71 69 67
27 27 29 29 25 26 28 33 35 36 38 41 44 45 47 46 46 45 45 45 47 48 49 49 51 54 55 57 61 64 66 70 76 83 86 83 83 82 78 77 71 64 54
31 32 33 30 28 29 33 35 35 38 41 43 46 48 48 45 43 42 42 43 45 46 46 46 50 55 59 57 55 57 61 64 70 79 88 91 88 86 82 72 60 53 42
34 36 34 32 33 34 35 38 38 41 42 44 47 46 44 42 41 40 38 41 41 40 42 45 50 54 57 63 68 65 57 63 72 82 83 83 78 76 75 70 65 51 44
Wind_Direction_850mb
203 207 209 211 213 218 221 227 233 242 246 253 261 269 277 279 280 281 284 286 288 284 288 290 291 294 294 297 296 297 297 299 302 307 305 306 312 314 306 306 305 298 295
210 216 215 218 219 223 224 230 237 243 248 255 264 268 270 273 278 281 284 289 291 289 284 286 289 287 288 288 290 295 298 301 305 312 318 320 318 322 309 307 299 302 302
194 190 195 200 205 210 211 213 220 232 248 258 261 266 272 278 281 284 288 290 289 288 288 291 294 297 298 299 300 302 305 307 307 318 314 321 304 308 313 314 307 310 305
160 155 160 172 180 192 207 225 242 257 265 268 274 280 283 285 286 290 297 297 296 298 299 300 302 304 307 308 308 309 309 309 308 309 311 293 289 304 306 293 298 308 304
151 148 152 161 178 195 207 211 222 229 275 318 321 322 315 310 311 311 308 305 306 309 310 311 314 313 311 310 309 308 305 303 301 302 302 300 297 300 293 304 295 293 292
142 142 145 145 144 137 135 142 105 89 83 59 40 27 6 354 343 336 328 326 325 322 320 320 318 316 315 314 312 309 307 304 300 299 298 298 300 298 303 299 297 298 299
138 133 131 136 133 136 115 109 97 83 71 49 28 14 0 350 344 339 329 321 319 319 318 317 318 319 318 317 315 313 311 309 308 307 305 303 300 298 297 295 296 298 299
129 126 127 132 134 124 113 103 86 64 50 29 7 352 341 332 331 329 325 325 325 324 323 325 325 325 325 324 324 323 320 318 314 310 307 305 303 299 297 296 298 302 300
190 165 154 145 134 126 118 114 89 56 24 0 345 331 326 323 326 325 325 330 335 335 335 333 329 326 322 318 317 315 314 313 311 309 307 304 303 300 298 293 291 290 294
154 152 149 150 145 129 124 105 74 27 339 329 322 324 330 336 339 339 336 335 333 330 327 324 323 320 317 315 314 312 310 308 308 306 304 304 303 300 298 295 291 285 281
154 151 153 157 154 140 129 122 101 302 307 311 321 330 336 336 333 331 332 330 328 325 323 321 319 318 316 315 313 311 310 308 307 307 305 304 302 299 297 294 290 286 280
152 156 164 172 174 171 168 191 288 306 313 318 323 328 328 327 328 326 324 323 320 317 316 315 315 314 312 310 309 309 309 308 307 306 305 304 302 300 300 298 295 290 284
161 166 182 190 193 203 217 258 277 296 305 307 309 316 316 317 318 318 316 315 315 316 315 314 313 314 315 314 314 314 313 312 310 309 308 307 305 302 300 298 295 294 290
183 196 200 200 207 212 226 242 266 284 289 296 309 312 313 314 315 317 318 318 319 320 321 324 325 324 323 322 321 318 317 316 314 312 309 308 307 305 304 302 299 296 292
202 209 209 204 204 210 222 237 264 272 295 306 308 310 313 317 319 319 321 324 327 330 331 332 331 328 326 324 323 321 321 320 319 316 313 311 309 306 305 305 303 301 296
213 215 208 202 201 212 225 245 258 294 306 309 312 315 318 319 323 326 329 332 334 334 332 329 330 331 330 330 328 326 325 324 322 320 319 316 312 309 307 306 302 300 301
214 210 203 200 205 218 230 232 275 300 306 310 314 319 326 331 331 331 331 331 332 333 334 334 334 335 334 333 330 327 327 326 325 324 324 322 319 318 318 314 308 305 300
204 197 197 198 208 214 221 263 292 304 312 316 322 327 327 326 325 327 330 333 335 335 337 337 337 337 335 333 331 329 328 327 326 327 326 323 324 325 322 319 314 312 310
180 182 188 199 204 218 263 291 303 309 313 318 318 318 320 325 329 331 332 333 335 335 337 336 336 336 335 332 328 327 327 326 328 327 327 328 324 325 324 316 315 318 315
176 187 195 199 220 262 288 302 310 311 311 312 316 321 322 322 325 327 331 333 332 333 334 334 332 330 330 332 332 332 331 332 333 330 328 328 324 323 322 316 315 309 311
185 189 203 240 272 288 303 308 304 305 310 309 309 309 314 318 324 327 328 326 328 329 326 326 327 328 331 334 336 336 336 336 329 330 330 329 325 322 316 311 303 298 307
202 223 255 275 290 298 295 294 298 303 301 304 307 313 315 319 322 320 319 321 322 322 323 324 327 332 337 338 338 337 338 336 332 330 329 329 326 324 320 313 303 299 298
240 256 267 279 285 286 294 295 298 298 301 305 306 309 313 312 311 312 314 316 318 321 324 326 330 335 339 340 338 338 340 334 329 327 325 327 328 327 323 321 312 305 301
257 269 279 285 284 285 289 294 297 298 302 302 304 305 304 304 308 311 312 315 318 320 323 327 331 334 337 337 338 338 338 332 328 323 326 328 327 326 324 320 316 315 306
264 273 276 270 273 281 286 291 295 297 297 299 300 300 300 302 303 305 309 316 319 322 327 329 329 330 332 335 332 332 332 325 322 322 325 327 328 330 332 330 325 321 325
267 271 267 265 271 276 285 288 289 288 291 295 296 297 298 298 299 303 310 315 317 320 323 326 327 327 327 327 328 330 325 324 326 325 326 327 329 331 333 336 335 332 335